,,,PA_Meas_PMT16A,,PR_Meas_QMR101_102,,RH_Meas_QMH101,,SR_Meas_QMS101,,TA_Meas_QMH101,,GenWind,,GenWind,
date,time,status,PA,status,PR,status,RH,status,SR,status,TA,status,DirAvg,status,SpdAvg,
2009-06-29, 00:00:04,VALID,1004.36,VALID,0,VALID,91.9128,VALID,0,VALID,24.5601,VALID,354,VALID,0,
2009-06-29, 00:01:04,VALID,1004.37,VALID,0,VALID,91.928,VALID,0,VALID,24.5796,VALID,354,VALID,0.159375,
2009-06-29, 00:02:04,VALID,1004.33,VALID,0,VALID,91.8059,VALID,0,VALID,24.5601,VALID,353,VALID,0.462891,
2009-06-29, 00:03:04,VALID,1004.33,VALID,0,VALID,91.8441,VALID,0,VALID,24.6009,VALID,347,VALID,0.476953,
2009-06-29, 00:04:04,VALID,1004.31,VALID,0,VALID,91.8822,VALID,0,VALID,24.599,VALID,347,VALID,0.485547,
2009-06-29, 00:05:04,VALID,1004.32,VALID,0,VALID,91.7602,VALID,0,VALID,24.6185,VALID,344,VALID,0.491016,
2009-06-29, 00:06:04,VALID,1004.29,VALID,0,VALID,91.6534,VALID,0,VALID,24.6166,VALID,303,VALID,0.371484,
2009-06-29, 00:07:04,VALID,1004.32,VALID,0,VALID,91.6152,VALID,0,VALID,24.6574,VALID,353,VALID,0.538672,
2009-06-29, 00:08:04,VALID,1004.35,VALID,0,VALID,91.4703,VALID,0,VALID,24.6769,VALID,354,VALID,0.434766,
2009-06-29, 00:09:04,VALID,1004.37,VALID,0,VALID,91.3406,VALID,0,VALID,24.6769,VALID,354,VALID,0.4125,
2009-06-29, 00:10:04,VALID,1004.38,VALID,0,VALID,91.2796,VALID,0,VALID,24.6574,VALID,354,VALID,0.284375,
2009-06-29, 00:11:04,VALID,1004.42,VALID,0,VALID,91.1804,VALID,0,VALID,24.638,VALID,354,VALID,0.295312,
2009-06-29, 00:12:04,VALID,1004.46,VALID,0,VALID,91.2338,VALID,0,VALID,24.599,VALID,354,VALID,0.401172,
2009-06-29, 00:13:04,VALID,1004.45,VALID,0,VALID,91.2643,VALID,0,VALID,24.5582,VALID,354,VALID,0.30625,
2009-06-29, 00:14:04,VALID,1004.45,VALID,0,VALID,91.2948,VALID,0,VALID,24.5388,VALID,354,VALID,0.23125,
2009-06-29, 00:15:04,VALID,1004.45,VALID,0,VALID,91.5695,VALID,0,VALID,24.5601,VALID,331,VALID,0.334766,
2009-06-29, 00:16:04,VALID,1004.46,VALID,0,VALID,91.6915,VALID,0,VALID,24.5601,VALID,331,VALID,0.474609,
2009-06-29, 00:17:04,VALID,1004.49,VALID,0,VALID,91.6229,VALID,0,VALID,24.5796,VALID,331,VALID,0.0535156,
2009-06-29, 00:18:04,VALID,1004.47,VALID,0,VALID,91.5237,VALID,0,VALID,24.599,VALID,340,VALID,0.523438,
2009-06-29, 00:19:04,VALID,1004.46,VALID,0,VALID,91.4703,VALID,0,VALID,24.6185,VALID,346,VALID,0.525781,
2009-06-29, 00:20:04,VALID,1004.49,VALID,0,VALID,91.3253,VALID,0,VALID,24.5972,VALID,351,VALID,0.325781,
2009-06-29, 00:21:04,VALID,1004.48,VALID,0,VALID,91.2109,VALID,0,VALID,24.6185,VALID,351,VALID,0.285156,
2009-06-29, 00:22:04,VALID,1004.48,VALID,0,VALID,91.3101,VALID,0,VALID,24.6185,VALID,351,VALID,0.299219,
2009-06-29, 00:23:04,VALID,1004.47,VALID,0,VALID,91.2643,VALID,0,VALID,24.6398,VALID,351,VALID,0.346484,
2009-06-29, 00:24:04,VALID,1004.47,VALID,0,VALID,91.2948,VALID,0,VALID,24.638,VALID,351,VALID,0.540234,
2009-06-29, 00:25:04,VALID,1004.47,VALID,0,VALID,91.2796,VALID,0,VALID,24.6574,VALID,351,VALID,0.5625,
2009-06-29, 00:26:04,VALID,1004.49,VALID,0,VALID,90.9668,VALID,0,VALID,24.6574,VALID,351,VALID,0.483203,
2009-06-29, 00:27:04,VALID,1004.49,VALID,0,VALID,90.9744,VALID,0,VALID,24.638,VALID,351,VALID,0.575781,
2009-06-29, 00:28:04,VALID,1004.47,VALID,0,VALID,91.1193,VALID,0,VALID,24.6185,VALID,350,VALID,0.596875,
2009-06-29, 00:29:04,VALID,1004.48,VALID,0,VALID,91.1499,VALID,0,VALID,24.6185,VALID,348,VALID,0.685156,
2009-06-29, 00:30:04,VALID,1004.47,VALID,0,VALID,91.1346,VALID,0,VALID,24.638,VALID,354,VALID,0.819141,
2009-06-29, 00:31:04,VALID,1004.48,VALID,0,VALID,91.0278,VALID,0,VALID,24.6574,VALID,356,VALID,0.341797,
2009-06-29, 00:32:04,VALID,1004.47,VALID,0,VALID,90.982,VALID,0,VALID,24.6769,VALID,358,VALID,0.626953,
2009-06-29, 00:33:04,VALID,1004.46,VALID,0,VALID,90.8371,VALID,0,VALID,24.6769,VALID,347,VALID,0.808984,
2009-06-29, 00:34:04,VALID,1004.48,VALID,0,VALID,90.7837,VALID,0,VALID,24.6166,VALID,349,VALID,0.539844,
2009-06-29, 00:35:04,VALID,1004.49,VALID,0,VALID,90.8066,VALID,0,VALID,24.6185,VALID,349,VALID,0.585547,
2009-06-29, 00:36:04,VALID,1004.51,VALID,0,VALID,90.8447,VALID,0,VALID,24.5796,VALID,349,VALID,0.646484,
2009-06-29, 00:37:04,VALID,1004.51,VALID,0,VALID,90.9973,VALID,0,VALID,24.5406,VALID,350,VALID,0.685156,
2009-06-29, 00:38:04,VALID,1004.51,VALID,0,VALID,91.0965,VALID,0,VALID,24.5212,VALID,351,VALID,0.671094,
2009-06-29, 00:39:04,VALID,1004.51,VALID,0,VALID,91.2185,VALID,0,VALID,24.4822,VALID,352,VALID,0.564062,
2009-06-29, 00:40:04,VALID,1004.46,VALID,0,VALID,91.3635,VALID,0,VALID,24.5035,VALID,351,VALID,0.520703,
2009-06-29, 00:41:04,VALID,1004.48,VALID,0,VALID,91.4245,VALID,0,VALID,24.4628,VALID,351,VALID,0.400391,
2009-06-29, 00:42:04,VALID,1004.46,VALID,0,VALID,91.5389,VALID,0,VALID,24.4433,VALID,351,VALID,0.491016,
2009-06-29, 00:43:04,VALID,1004.44,VALID,0,VALID,91.6763,VALID,0,VALID,24.4433,VALID,351,VALID,0.484766,
2009-06-29, 00:44:04,VALID,1004.42,VALID,0,VALID,91.7602,VALID,0,VALID,24.422,VALID,75,VALID,0.0183594,
2009-06-29, 00:45:04,VALID,1004.39,VALID,0,VALID,91.8288,VALID,0,VALID,24.4433,VALID,359,VALID,0.0769531,
2009-06-29, 00:46:04,VALID,1004.37,VALID,0,VALID,91.8746,VALID,0,VALID,24.4433,VALID,346,VALID,0.611719,
2009-06-29, 00:47:04,VALID,1004.32,VALID,0,VALID,91.8365,VALID,0,VALID,24.4628,VALID,348,VALID,0.622266,
2009-06-29, 00:48:04,VALID,1004.31,VALID,0,VALID,91.8594,VALID,0,VALID,24.4841,VALID,342,VALID,0.430859,
2009-06-29, 00:49:04,VALID,1004.27,VALID,0,VALID,91.8288,VALID,0,VALID,24.4609,VALID,350,VALID,0.587109,
2009-06-29, 00:50:04,VALID,1004.28,VALID,0,VALID,91.8212,VALID,0,VALID,24.4822,VALID,352,VALID,0.564844,
2009-06-29, 00:51:04,VALID,1004.27,VALID,0,VALID,91.722,VALID,0,VALID,24.4822,VALID,352,VALID,0.394141,
2009-06-29, 00:52:04,VALID,1004.27,VALID,0,VALID,91.6915,VALID,0,VALID,24.4822,VALID,352,VALID,0.625781,
2009-06-29, 00:53:04,VALID,1004.25,VALID,0,VALID,91.7525,VALID,0,VALID,24.4628,VALID,352,VALID,0.385156,
2009-06-29, 00:54:04,VALID,1004.24,VALID,0,VALID,91.867,VALID,0,VALID,24.4433,VALID,350,VALID,0.541016,
2009-06-29, 00:55:04,VALID,1004.2,VALID,0,VALID,91.9128,VALID,0,VALID,24.4628,VALID,352,VALID,0.731641,
2009-06-29, 00:56:04,VALID,1004.16,VALID,0,VALID,91.8746,VALID,0,VALID,24.4628,VALID,352,VALID,0.589063,
2009-06-29, 00:57:04,VALID,1004.15,VALID,0,VALID,91.8441,VALID,0,VALID,24.4822,VALID,349,VALID,0.691406,
2009-06-29, 00:58:04,VALID,1004.15,VALID,0,VALID,91.7525,VALID,0,VALID,24.5017,VALID,345,VALID,0.450391,
2009-06-29, 00:59:04,VALID,1004.11,VALID,0,VALID,91.6457,VALID,0,VALID,24.5017,VALID,345,VALID,0.437109,
2009-06-29, 01:00:04,VALID,1004.1,VALID,0,VALID,91.6152,VALID,0,VALID,24.523,VALID,345,VALID,0.485156,
2009-06-29, 01:01:04,VALID,1004.08,VALID,0,VALID,91.5695,VALID,0,VALID,24.5017,VALID,348,VALID,0.533984,
2009-06-29, 01:02:04,VALID,1004.03,VALID,0,VALID,91.5618,VALID,0,VALID,24.5406,VALID,348,VALID,0.338672,
2009-06-29, 01:03:04,VALID,1004.03,VALID,0,VALID,91.4703,VALID,0,VALID,24.5601,VALID,347,VALID,0.633203,
2009-06-29, 01:04:04,VALID,1003.95,VALID,0,VALID,91.3482,VALID,0,VALID,24.5796,VALID,342,VALID,0.569531,
2009-06-29, 01:05:04,VALID,1003.95,VALID,0,VALID,91.2109,VALID,0,VALID,24.599,VALID,343,VALID,0.551953,
2009-06-29, 01:06:04,VALID,1003.94,VALID,0,VALID,91.1346,VALID,0,VALID,24.638,VALID,345,VALID,0.904688,
2009-06-29, 01:07:04,VALID,1003.94,VALID,0,VALID,90.982,VALID,0,VALID,24.6574,VALID,357,VALID,0.690234,
2009-06-29, 01:08:04,VALID,1003.92,VALID,0,VALID,90.8142,VALID,0,VALID,24.6788,VALID,355,VALID,0.615625,
2009-06-29, 01:09:04,VALID,1003.93,VALID,0,VALID,90.8523,VALID,0,VALID,24.6788,VALID,355,VALID,0.9125,
2009-06-29, 01:10:04,VALID,1003.96,VALID,0,VALID,90.7532,VALID,0,VALID,24.6769,VALID,355,VALID,0.707031,
2009-06-29, 01:11:04,VALID,1003.97,VALID,0,VALID,90.6845,VALID,0,VALID,24.6964,VALID,355,VALID,0.452734,
2009-06-29, 01:12:04,VALID,1003.98,VALID,0,VALID,90.5472,VALID,0,VALID,24.7159,VALID,332,VALID,0.509375,
2009-06-29, 01:13:04,VALID,1003.99,VALID,0,VALID,90.5014,VALID,0,VALID,24.7567,VALID,336,VALID,0.659766,
2009-06-29, 01:14:04,VALID,1004,VALID,0,VALID,90.448,VALID,0,VALID,24.7743,VALID,338,VALID,0.561719,
2009-06-29, 01:15:04,VALID,1004.01,VALID,0,VALID,90.3031,VALID,0,VALID,24.7937,VALID,335,VALID,0.209766,
2009-06-29, 01:16:04,VALID,1004.03,VALID,0,VALID,90.2039,VALID,0,VALID,24.8132,VALID,354,VALID,0.494922,
2009-06-29, 01:17:04,VALID,1004.07,VALID,0,VALID,90.1047,VALID,0,VALID,24.8327,VALID,336,VALID,0.934766,
2009-06-29, 01:18:04,VALID,1004.09,VALID,0,VALID,89.975,VALID,0,VALID,24.8716,VALID,338,VALID,0.630859,
2009-06-29, 01:19:04,VALID,1004.13,VALID,0,VALID,89.8224,VALID,0,VALID,24.9106,VALID,326,VALID,0.285156,
2009-06-29, 01:20:04,VALID,1004.16,VALID,0,VALID,89.7538,VALID,0,VALID,24.9106,VALID,350,VALID,0.5125,
2009-06-29, 01:21:04,VALID,1004.15,VALID,0,VALID,89.6851,VALID,0,VALID,24.93,VALID,360,VALID,0.192969,
2009-06-29, 01:22:04,VALID,1004.11,VALID,0,VALID,89.5631,VALID,0,VALID,24.93,VALID,360,VALID,0.009375,
2009-06-29, 01:23:04,VALID,1004.07,VALID,0,VALID,89.5783,VALID,0,VALID,24.9495,VALID,360,VALID,0.059375,
2009-06-29, 01:24:04,VALID,1004.05,VALID,0,VALID,89.6012,VALID,0,VALID,24.9495,VALID,294,VALID,0.358203,
2009-06-29, 01:25:04,VALID,1004.02,VALID,0,VALID,89.4944,VALID,0,VALID,24.9495,VALID,296,VALID,0.263281,
2009-06-29, 01:26:04,VALID,1003.98,VALID,0,VALID,89.5631,VALID,0,VALID,24.969,VALID,296,VALID,0,
2009-06-29, 01:27:04,VALID,1003.93,VALID,0,VALID,89.6393,VALID,0,VALID,24.969,VALID,296,VALID,0.275,
2009-06-29, 01:28:04,VALID,1003.92,VALID,0,VALID,89.6393,VALID,0,VALID,24.969,VALID,297,VALID,0.350781,
2009-06-29, 01:29:04,VALID,1003.89,VALID,0,VALID,89.6088,VALID,0,VALID,24.9671,VALID,275,VALID,0.801562,
2009-06-29, 01:30:04,VALID,1003.88,VALID,0,VALID,89.6088,VALID,0,VALID,24.9885,VALID,287,VALID,0.520703,
2009-06-29, 01:31:04,VALID,1003.89,VALID,0,VALID,89.4715,VALID,0,VALID,24.9885,VALID,295,VALID,0.551172,
2009-06-29, 01:32:04,VALID,1003.86,VALID,0,VALID,89.5097,VALID,0,VALID,25.0079,VALID,292,VALID,0.810938,
2009-06-29, 01:33:04,VALID,1003.87,VALID,0,VALID,89.4944,VALID,0,VALID,25.0274,VALID,293,VALID,0.763672,
2009-06-29, 01:34:04,VALID,1003.85,VALID,0,VALID,89.3876,VALID,0,VALID,25.0079,VALID,281,VALID,0.198437,
2009-06-29, 01:35:04,VALID,1003.87,VALID,0,VALID,89.4105,VALID,0,VALID,25.0079,VALID,281,VALID,0.139062,
2009-06-29, 01:36:04,VALID,1003.86,VALID,0,VALID,89.6622,VALID,0,VALID,25.0079,VALID,281,VALID,0,
2009-06-29, 01:37:04,VALID,1003.83,VALID,0,VALID,89.8758,VALID,0,VALID,25.0079,VALID,281,VALID,0.0378906,
2009-06-29, 01:38:04,VALID,1003.79,VALID,0,VALID,90.0055,VALID,0,VALID,24.9885,VALID,281,VALID,0.0753906,
2009-06-29, 01:39:04,VALID,1003.77,VALID,0,VALID,89.8453,VALID,0,VALID,24.9495,VALID,294,VALID,0.735156,
2009-06-29, 01:40:04,VALID,1003.74,VALID,0,VALID,89.8835,VALID,0,VALID,24.93,VALID,292,VALID,0.725,
2009-06-29, 01:41:04,VALID,1003.7,VALID,0,VALID,89.9598,VALID,0,VALID,24.8911,VALID,294,VALID,0.634375,
2009-06-29, 01:42:04,VALID,1003.69,VALID,0,VALID,90.12,VALID,0.100563,VALID,24.8892,VALID,287,VALID,0.838281,
2009-06-29, 01:43:04,VALID,1003.7,VALID,0,VALID,90.242,VALID,0.100563,VALID,24.8697,VALID,279,VALID,0.199219,
2009-06-29, 01:44:04,VALID,1003.69,VALID,0,VALID,90.4251,VALID,0,VALID,24.8697,VALID,328,VALID,0.435156,
2009-06-29, 01:45:04,VALID,1003.67,VALID,0,VALID,90.5319,VALID,0.100563,VALID,24.8308,VALID,347,VALID,0.525391,
2009-06-29, 01:46:04,VALID,1003.66,VALID,0,VALID,90.7455,VALID,0.100563,VALID,24.8132,VALID,347,VALID,0.486328,
2009-06-29, 01:47:04,VALID,1003.6,VALID,0,VALID,90.9363,VALID,0.100563,VALID,24.7529,VALID,348,VALID,0.55,
2009-06-29, 01:48:04,VALID,1003.6,VALID,0,VALID,91.0812,VALID,0,VALID,24.6945,VALID,350,VALID,0.228125,
2009-06-29, 01:49:04,VALID,1003.56,VALID,0,VALID,91.3177,VALID,0.100563,VALID,24.6556,VALID,350,VALID,0.320703,
2009-06-29, 01:50:04,VALID,1003.57,VALID,0,VALID,91.4855,VALID,0.100563,VALID,24.6148,VALID,350,VALID,0.327734,
2009-06-29, 01:51:04,VALID,1003.52,VALID,0,VALID,91.6991,VALID,0.100563,VALID,24.5972,VALID,352,VALID,0.489844,
2009-06-29, 01:52:04,VALID,1003.52,VALID,0,VALID,91.8594,VALID,0.100563,VALID,24.5564,VALID,352,VALID,0.357422,
2009-06-29, 01:53:04,VALID,1003.48,VALID,0,VALID,92.134,VALID,0,VALID,24.5369,VALID,326,VALID,0.221875,
2009-06-29, 01:54:04,VALID,1003.48,VALID,0,VALID,92.3247,VALID,0,VALID,24.5174,VALID,310,VALID,0.282813,
2009-06-29, 01:55:04,VALID,1003.52,VALID,0,VALID,92.4773,VALID,0.100563,VALID,24.5388,VALID,318,VALID,0.284766,
2009-06-29, 01:56:04,VALID,1003.52,VALID,0,VALID,92.5688,VALID,0,VALID,24.5193,VALID,328,VALID,0.4,
2009-06-29, 01:57:04,VALID,1003.55,VALID,0,VALID,92.607,VALID,0.100563,VALID,24.5193,VALID,328,VALID,0.303516,
2009-06-29, 01:58:04,VALID,1003.56,VALID,0,VALID,92.6833,VALID,0,VALID,24.4804,VALID,329,VALID,0.323828,
2009-06-29, 01:59:04,VALID,1003.55,VALID,0,VALID,92.7748,VALID,0,VALID,24.4609,VALID,331,VALID,0.35625,
2009-06-29, 02:00:04,VALID,1003.56,VALID,0,VALID,92.874,VALID,0.100563,VALID,24.4201,VALID,331,VALID,0.108203,
2009-06-29, 02:01:04,VALID,1003.52,VALID,0,VALID,92.9503,VALID,0,VALID,24.422,VALID,331,VALID,0.337109,
2009-06-29, 02:02:04,VALID,1003.55,VALID,0,VALID,93.0189,VALID,0,VALID,24.422,VALID,356,VALID,0.538672,
2009-06-29, 02:03:04,VALID,1003.55,VALID,0,VALID,93.0189,VALID,0,VALID,24.422,VALID,359,VALID,0.609766,
2009-06-29, 02:04:04,VALID,1003.5,VALID,0,VALID,93.0571,VALID,0,VALID,24.422,VALID,352,VALID,0.451953,
2009-06-29, 02:05:04,VALID,1003.47,VALID,0,VALID,93.0647,VALID,0.100563,VALID,24.422,VALID,353,VALID,0,
2009-06-29, 02:06:04,VALID,1003.48,VALID,0,VALID,93.1105,VALID,0,VALID,24.4433,VALID,353,VALID,0,
2009-06-29, 02:07:04,VALID,1003.5,VALID,0,VALID,93.1639,VALID,0.100563,VALID,24.4609,VALID,353,VALID,0.05,
2009-06-29, 02:08:04,VALID,1003.5,VALID,0.5,VALID,93.1715,VALID,0.100563,VALID,24.4414,VALID,355,VALID,0.325781,
2009-06-29, 02:09:04,VALID,1003.53,VALID,0,VALID,93.1791,VALID,0.100563,VALID,24.4414,VALID,356,VALID,0.301562,
2009-06-29, 02:10:04,VALID,1003.55,VALID,0,VALID,93.1715,VALID,0.100563,VALID,24.4025,VALID,356,VALID,0.301953,
2009-06-29, 02:11:04,VALID,1003.56,VALID,0,VALID,93.1944,VALID,0.100563,VALID,24.4025,VALID,356,VALID,0.232812,
2009-06-29, 02:12:04,VALID,1003.52,VALID,0,VALID,93.1791,VALID,0,VALID,24.3849,VALID,354,VALID,0.367188,
2009-06-29, 02:13:04,VALID,1003.49,VALID,0,VALID,93.2478,VALID,0,VALID,24.383,VALID,352,VALID,0.000390625,
2009-06-29, 02:14:04,VALID,1003.46,VALID,0,VALID,93.2707,VALID,0,VALID,24.3654,VALID,352,VALID,0.0410156,
2009-06-29, 02:15:04,VALID,1003.45,VALID,0,VALID,93.2859,VALID,0,VALID,24.3654,VALID,352,VALID,0.205469,
2009-06-29, 02:16:04,VALID,1003.46,VALID,0,VALID,93.3088,VALID,0,VALID,24.3654,VALID,352,VALID,0.00664063,
2009-06-29, 02:17:04,VALID,1003.46,VALID,0,VALID,93.3317,VALID,0,VALID,24.3654,VALID,352,VALID,0.193359,
2009-06-29, 02:18:04,VALID,1003.46,VALID,0,VALID,93.4004,VALID,0,VALID,24.3654,VALID,349,VALID,0.156641,
2009-06-29, 02:19:04,VALID,1003.47,VALID,0,VALID,93.469,VALID,0,VALID,24.4043,VALID,318,VALID,0.663281,
2009-06-29, 02:20:04,VALID,1003.48,VALID,0,VALID,93.4538,VALID,0,VALID,24.4062,VALID,290,VALID,0.541016,
2009-06-29, 02:21:04,VALID,1003.42,VALID,0,VALID,93.4156,VALID,0,VALID,24.3849,VALID,287,VALID,0.940234,
2009-06-29, 02:22:04,VALID,1003.39,VALID,0,VALID,93.3699,VALID,0,VALID,24.3849,VALID,287,VALID,1.20781,
2009-06-29, 02:23:04,VALID,1003.39,VALID,0,VALID,93.4004,VALID,0,VALID,24.4043,VALID,300,VALID,0.353516,
2009-06-29, 02:24:04,VALID,1003.45,VALID,0,VALID,93.4385,VALID,0,VALID,24.4238,VALID,301,VALID,0,
2009-06-29, 02:25:04,VALID,1003.49,VALID,0,VALID,93.408,VALID,0,VALID,24.4043,VALID,301,VALID,0.109766,
2009-06-29, 02:26:04,VALID,1003.58,VALID,0,VALID,93.408,VALID,0,VALID,24.3636,VALID,301,VALID,0.185156,
2009-06-29, 02:27:04,VALID,1003.58,VALID,0,VALID,93.3928,VALID,0.100563,VALID,24.383,VALID,301,VALID,0.186719,
2009-06-29, 02:28:04,VALID,1003.58,VALID,0,VALID,93.4156,VALID,0,VALID,24.3636,VALID,301,VALID,0.184375,
2009-06-29, 02:29:04,VALID,1003.56,VALID,0,VALID,93.4538,VALID,0,VALID,24.3636,VALID,301,VALID,0,
2009-06-29, 02:30:04,VALID,1003.51,VALID,0,VALID,93.4919,VALID,0.100563,VALID,24.383,VALID,301,VALID,0,
2009-06-29, 02:31:04,VALID,1003.5,VALID,0,VALID,93.5453,VALID,0.100563,VALID,24.383,VALID,301,VALID,0,
2009-06-29, 02:32:04,VALID,1003.47,VALID,0,VALID,93.5301,VALID,0.100563,VALID,24.383,VALID,301,VALID,0,
2009-06-29, 02:33:04,VALID,1003.47,VALID,0,VALID,93.5377,VALID,0.100563,VALID,24.383,VALID,301,VALID,0,
2009-06-29, 02:34:04,VALID,1003.46,VALID,0,VALID,93.5987,VALID,0.100563,VALID,24.383,VALID,301,VALID,0,
2009-06-29, 02:35:04,VALID,1003.46,VALID,0,VALID,93.614,VALID,0,VALID,24.383,VALID,301,VALID,0,
2009-06-29, 02:36:04,VALID,1003.43,VALID,0,VALID,93.6369,VALID,0,VALID,24.3636,VALID,301,VALID,0.344922,
2009-06-29, 02:37:04,VALID,1003.39,VALID,0,VALID,93.6826,VALID,0,VALID,24.3849,VALID,301,VALID,0.0015625,
2009-06-29, 02:38:04,VALID,1003.35,VALID,0,VALID,93.7055,VALID,0.100563,VALID,24.383,VALID,301,VALID,0.207813,
2009-06-29, 02:39:04,VALID,1003.3,VALID,0,VALID,93.7132,VALID,0.100563,VALID,24.3636,VALID,301,VALID,0.312891,
2009-06-29, 02:40:04,VALID,1003.29,VALID,0,VALID,93.7284,VALID,0,VALID,24.3636,VALID,301,VALID,0.216406,
2009-06-29, 02:41:04,VALID,1003.27,VALID,0,VALID,93.7513,VALID,0,VALID,24.3441,VALID,301,VALID,0,
2009-06-29, 02:42:04,VALID,1003.32,VALID,0,VALID,93.7971,VALID,0.100563,VALID,24.3636,VALID,301,VALID,0.00078125,
2009-06-29, 02:43:04,VALID,1003.34,VALID,0,VALID,93.8581,VALID,0.100563,VALID,24.3849,VALID,301,VALID,0.184766,
2009-06-29, 02:44:04,VALID,1003.34,VALID,0,VALID,93.8276,VALID,0.100563,VALID,24.3636,VALID,305,VALID,0.398828,
2009-06-29, 02:45:04,VALID,1003.34,VALID,0,VALID,93.7971,VALID,0.100563,VALID,24.3246,VALID,330,VALID,0.470703,
2009-06-29, 02:46:04,VALID,1003.33,VALID,0,VALID,93.8581,VALID,0.100563,VALID,24.3052,VALID,331,VALID,0,
2009-06-29, 02:47:04,VALID,1003.33,VALID,0,VALID,93.9191,VALID,0.100563,VALID,24.3228,VALID,317,VALID,0.236328,
2009-06-29, 02:48:04,VALID,1003.34,VALID,0,VALID,93.9191,VALID,0,VALID,24.3246,VALID,282,VALID,0.584766,
2009-06-29, 02:49:04,VALID,1003.34,VALID,0,VALID,93.9497,VALID,0,VALID,24.3228,VALID,282,VALID,0.275,
2009-06-29, 02:50:04,VALID,1003.34,VALID,0,VALID,93.9573,VALID,0,VALID,24.3459,VALID,282,VALID,0.0886719,
2009-06-29, 02:51:04,VALID,1003.32,VALID,0,VALID,93.9649,VALID,0,VALID,24.3654,VALID,282,VALID,0.128125,
2009-06-29, 02:52:04,VALID,1003.34,VALID,0,VALID,93.9573,VALID,0,VALID,24.3246,VALID,283,VALID,0.252734,
2009-06-29, 02:53:04,VALID,1003.35,VALID,0,VALID,93.9573,VALID,0,VALID,24.3441,VALID,283,VALID,0.116406,
2009-06-29, 02:54:04,VALID,1003.36,VALID,0,VALID,93.9344,VALID,0.100563,VALID,24.3441,VALID,286,VALID,0.20625,
2009-06-29, 02:55:04,VALID,1003.4,VALID,0,VALID,93.9344,VALID,0.100563,VALID,24.3246,VALID,287,VALID,0.233984,
2009-06-29, 02:56:04,VALID,1003.39,VALID,0,VALID,93.9039,VALID,0,VALID,24.3052,VALID,287,VALID,0.134766,
2009-06-29, 02:57:04,VALID,1003.48,VALID,0,VALID,93.9115,VALID,0,VALID,24.307,VALID,287,VALID,0.0527344,
2009-06-29, 02:58:04,VALID,1003.48,VALID,0,VALID,93.9191,VALID,0,VALID,24.3265,VALID,287,VALID,0.0914062,
2009-06-29, 02:59:04,VALID,1003.51,VALID,0,VALID,93.8886,VALID,0,VALID,24.3265,VALID,287,VALID,0.0261719,
2009-06-29, 03:00:04,VALID,1003.49,VALID,0,VALID,93.8963,VALID,0,VALID,24.2857,VALID,287,VALID,0,
2009-06-29, 03:01:04,VALID,1003.5,VALID,0,VALID,93.8963,VALID,0,VALID,24.2875,VALID,287,VALID,0,
2009-06-29, 03:02:04,VALID,1003.54,VALID,0,VALID,93.9268,VALID,0,VALID,24.2894,VALID,287,VALID,0,
2009-06-29, 03:03:04,VALID,1003.54,VALID,0,VALID,93.9268,VALID,0,VALID,24.2875,VALID,287,VALID,0.179688,
2009-06-29, 03:04:04,VALID,1003.54,VALID,0,VALID,93.9802,VALID,0,VALID,24.2662,VALID,211,VALID,0.521875,
2009-06-29, 03:05:04,VALID,1003.53,VALID,0,VALID,93.9954,VALID,0,VALID,24.2875,VALID,135,VALID,0.560156,
2009-06-29, 03:06:04,VALID,1003.51,VALID,0,VALID,93.9954,VALID,0,VALID,24.2681,VALID,135,VALID,0.378125,
2009-06-29, 03:07:04,VALID,1003.47,VALID,0,VALID,94.0031,VALID,0,VALID,24.2681,VALID,132,VALID,0.585938,
2009-06-29, 03:08:04,VALID,1003.44,VALID,0,VALID,93.9878,VALID,0,VALID,24.2681,VALID,126,VALID,0.398828,
2009-06-29, 03:09:04,VALID,1003.42,VALID,0,VALID,93.9802,VALID,0,VALID,24.2486,VALID,123,VALID,0,
2009-06-29, 03:10:04,VALID,1003.39,VALID,0,VALID,93.9573,VALID,0,VALID,24.2504,VALID,123,VALID,0.0746094,
2009-06-29, 03:11:04,VALID,1003.35,VALID,0,VALID,93.9954,VALID,0,VALID,24.2291,VALID,123,VALID,0.173438,
2009-06-29, 03:12:04,VALID,1003.3,VALID,0,VALID,94.0259,VALID,0,VALID,24.2291,VALID,123,VALID,0.121484,
2009-06-29, 03:13:04,VALID,1003.24,VALID,0,VALID,93.9954,VALID,0,VALID,24.2097,VALID,123,VALID,0.175781,
2009-06-29, 03:14:04,VALID,1003.21,VALID,0,VALID,94.0259,VALID,0,VALID,24.1884,VALID,123,VALID,0.00703125,
2009-06-29, 03:15:04,VALID,1003.23,VALID,0,VALID,94.0946,VALID,0,VALID,24.1884,VALID,101,VALID,0.328125,
2009-06-29, 03:16:04,VALID,1003.2,VALID,0,VALID,94.0794,VALID,0,VALID,24.2078,VALID,79,VALID,0.423438,
2009-06-29, 03:17:04,VALID,1003.18,VALID,0,VALID,94.0641,VALID,0,VALID,24.2097,VALID,79,VALID,0.447266,
2009-06-29, 03:18:04,VALID,1003.21,VALID,0,VALID,94.0794,VALID,0,VALID,24.1902,VALID,17,VALID,0.708984,
2009-06-29, 03:19:04,VALID,1003.18,VALID,0,VALID,94.0565,VALID,0,VALID,24.1902,VALID,10,VALID,0.563281,
2009-06-29, 03:20:04,VALID,1003.16,VALID,0,VALID,94.0336,VALID,0,VALID,24.1513,VALID,358,VALID,0.703906,
2009-06-29, 03:21:04,VALID,1003.16,VALID,0,VALID,94.0794,VALID,0,VALID,24.1318,VALID,334,VALID,0.339063,
2009-06-29, 03:22:04,VALID,1003.19,VALID,0,VALID,94.1328,VALID,0,VALID,24.1318,VALID,335,VALID,0.325781,
2009-06-29, 03:23:04,VALID,1003.24,VALID,0,VALID,94.1709,VALID,0,VALID,24.1513,VALID,353,VALID,0.541016,
2009-06-29, 03:24:04,VALID,1003.29,VALID,0,VALID,94.209,VALID,0,VALID,24.1513,VALID,347,VALID,0.533594,
2009-06-29, 03:25:04,VALID,1003.33,VALID,0,VALID,94.2319,VALID,0,VALID,24.1513,VALID,347,VALID,0.312891,
2009-06-29, 03:26:04,VALID,1003.41,VALID,0,VALID,94.2472,VALID,0,VALID,24.1513,VALID,348,VALID,0.542969,
2009-06-29, 03:27:04,VALID,1003.42,VALID,0,VALID,94.2548,VALID,0,VALID,24.1318,VALID,335,VALID,0.159766,
2009-06-29, 03:28:04,VALID,1003.42,VALID,0,VALID,94.2777,VALID,0,VALID,24.1707,VALID,319,VALID,0.24375,
2009-06-29, 03:29:04,VALID,1003.43,VALID,0,VALID,94.3006,VALID,0,VALID,24.1902,VALID,319,VALID,0.299609,
2009-06-29, 03:30:04,VALID,1003.41,VALID,0,VALID,94.3464,VALID,0,VALID,24.1902,VALID,279,VALID,0.620703,
2009-06-29, 03:31:04,VALID,1003.42,VALID,0,VALID,94.3464,VALID,0,VALID,24.2291,VALID,287,VALID,0.464063,
2009-06-29, 03:32:04,VALID,1003.42,VALID,0,VALID,94.354,VALID,0,VALID,24.2291,VALID,287,VALID,0.203906,
2009-06-29, 03:33:04,VALID,1003.44,VALID,0,VALID,94.3616,VALID,0,VALID,24.2291,VALID,290,VALID,0.585547,
2009-06-29, 03:34:04,VALID,1003.47,VALID,0,VALID,94.3235,VALID,0,VALID,24.2291,VALID,296,VALID,0.569531,
2009-06-29, 03:35:04,VALID,1003.49,VALID,0,VALID,94.3082,VALID,0,VALID,24.2699,VALID,290,VALID,0.0492188,
2009-06-29, 03:36:04,VALID,1003.53,VALID,0,VALID,94.3082,VALID,0,VALID,24.2681,VALID,290,VALID,0.289063,
2009-06-29, 03:37:04,VALID,1003.54,VALID,0,VALID,94.293,VALID,0,VALID,24.2875,VALID,321,VALID,0.452344,
2009-06-29, 03:38:04,VALID,1003.56,VALID,0,VALID,94.2624,VALID,0,VALID,24.2875,VALID,324,VALID,0.451562,
2009-06-29, 03:39:04,VALID,1003.6,VALID,0,VALID,94.2472,VALID,0,VALID,24.2681,VALID,341,VALID,0.594531,
2009-06-29, 03:40:04,VALID,1003.58,VALID,0,VALID,94.2243,VALID,0,VALID,24.2681,VALID,343,VALID,0.318359,
2009-06-29, 03:41:04,VALID,1003.58,VALID,0,VALID,94.2014,VALID,0,VALID,24.2875,VALID,343,VALID,0,
2009-06-29, 03:42:04,VALID,1003.59,VALID,0,VALID,94.1938,VALID,0,VALID,24.2857,VALID,343,VALID,0,
2009-06-29, 03:43:04,VALID,1003.6,VALID,0,VALID,94.2243,VALID,0,VALID,24.3052,VALID,343,VALID,0,